This is the latest recevied weather packets stored in our database for station/object 4S6DRJ-13. If no packets are shown the sender has not sent any weather packets the latest 10 day(s).
| Time | Temp. | Humidity | Pressure | Rain* | Wind** | Luminosity | Snow |
|---|---|---|---|---|---|---|---|
| 1787716891 | 28.89° C | 80% | 1012.1 hPa | 0 mm | 1.34 m/s, 284° | 334 W/m² | - |
| 1787716830 | 28.89° C | 80% | 1012.3 hPa | 0 mm | 1.79 m/s, 202° | 366 W/m² | - |
| 1787716769 | 29.44° C | 79% | 1012.2 hPa | 0 mm | 1.79 m/s, 268° | 436 W/m² | - |
| 1787716708 | 29.44° C | 79% | 1012.1 hPa | 0 mm | 1.79 m/s, 255° | 491 W/m² | - |
| 1787716647 | 29.44° C | 79% | 1011.9 hPa | 0 mm | 2.24 m/s, 283° | 332 W/m² | - |
| 1787716586 | 29.44° C | 79% | 1011.8 hPa | 0 mm | 0.89 m/s, 260° | 392 W/m² | - |
| 1787716525 | 29.44° C | 79% | 1011.9 hPa | 0 mm | 0.89 m/s, 251° | 461 W/m² | - |
| 1787716464 | 29.44° C | 79% | 1012.1 hPa | 0 mm | 0.89 m/s, 266° | 485 W/m² | - |
| 1787716403 | 29.44° C | 79% | 1011.9 hPa | 0 mm | 1.34 m/s, 215° | 420 W/m² | - |
| 1787716342 | 29.44° C | 79% | 1012.1 hPa | 0 mm | 1.79 m/s, 251° | 323 W/m² | - |
| 1787716282 | 29.44° C | 79% | 1011.9 hPa | 0 mm | 1.34 m/s, 243° | 349 W/m² | - |
| 1787716220 | 29.44° C | 78% | 1011.9 hPa | 0 mm | 0.89 m/s, 220° | 468 W/m² | - |
| 1787716159 | 30° C | 78% | 1011.8 hPa | 0 mm | 1.34 m/s, 226° | 512 W/m² | - |
| 1787716098 | 30° C | 78% | 1011.9 hPa | 0 mm | 0.89 m/s, 151° | 371 W/m² | - |
| 1787716037 | 29.44° C | 78% | 1012 hPa | 0 mm | 0.45 m/s, 286° | 394 W/m² | - |
| 1787715976 | 29.44° C | 78% | 1011.9 hPa | 0 mm | 0.45 m/s, 107° | 385 W/m² | - |
| 1787715915 | 29.44° C | 78% | 1011.9 hPa | 0 mm | 0.89 m/s, 167° | 390 W/m² | - |
| 1787715854 | 29.44° C | 78% | 1011.8 hPa | 0 mm | 1.34 m/s, 243° | 447 W/m² | - |
| 1787715793 | 29.44° C | 78% | 1011.8 hPa | 0 mm | 0.45 m/s, 266° | 506 W/m² | - |
| 1787715732 | 29.44° C | 78% | 1011.9 hPa | 0 mm | 0.89 m/s, 337° | 597 W/m² | - |
| 1787715671 | 29.44° C | 78% | 1011.9 hPa | 0 mm | 0.89 m/s, 214° | 582 W/m² | - |
| 1787715610 | 29.44° C | 79% | 1011.7 hPa | 0 mm | 0.89 m/s, 263° | 398 W/m² | - |
| 1787715549 | 29.44° C | 79% | 1011.9 hPa | 0 mm | 0.45 m/s, 306° | 658 W/m² | - |
| 1787715488 | 29.44° C | 79% | 1011.8 hPa | 0 mm | 1.34 m/s, 191° | 672 W/m² | - |
| 1787715427 | 28.89° C | 79% | 1011.7 hPa | 0 mm | 0.89 m/s, 213° | 697 W/m² | - |
* Rain latest hour (hover to see other rain measurements)
** Current wind speed in m/s (hover to see current wind gust speed)